Weather History for Waseca, MN

Change the Weather History Date:

Tuesday, February 25, 2014

  Actual Average Record
Temperature  
Mean Temperature 2 °F -  
Max Temperature 10 °F 30 °F 56 °F (1976)
Min Temperature -5 °F 11 °F -22 °F (1967)
Degree Days  
Heating Degree Days 62    
Moisture  
Dew Point -6 °F    
Average Humidity 73    
Maximum Humidity 85    
Minimum Humidity 57    
Precipitation  
Precipitation 0.00 in - - ()
Sea Level Pressure  
Sea Level Pressure 30.33 in    
Wind  
Wind Speed 14 mph (WNW)    
Max Wind Speed 23 mph    
Max Gust Speed 30 mph    
Visibility 9 miles    
Events      
Averages and records for this station are not official NWS values.
T = Trace of Precipitation, MM = Missing Value Source: NWS Daily Summary

Daily Weather History Graph

Daily Weather History Graph

Search for Another Location

Airport:

Trip Planner

Search our weather history database for the weather conditions in past years. The results will help you decide how hot, cold, wet, or windy it might be!

Date:

Astronomy

Feb. 25, 2014 Rise Set
Actual Time 6:57 AM CST 5:57 PM CST
Civil Twilight 6:28 AM CST 6:26 PM CST
Nautical Twilight 5:55 AM CST 7:00 PM CST
Astronomical Twilight 5:21 AM CST 7:33 PM CST
Moon 3:59 AM CST (2/25) 1:58 PM CST (2/25)
Length of Visible Light 11h 57m
Length of Day
10h 59m
Waning Crescent, 18% of the Moon is Illuminated
Feb 25
Waning Crescent
Mar 1
New
Mar 8
First Quarter
Mar 16
Full
Mar 23
Last Quarter

Hourly Weather History & Observations

Time (CST) Temp. Windchill Dew Point Humidity Pressure Visibility Wind Dir Wind Speed Gust Speed Precip Events Conditions
12:16 AM 3.2 °F -13.9 °F -0.4 °F 85% 30.33 in 10.0 mi WNW 12.7 mph - N/A   Clear
12:36 AM 3.2 °F -15.3 °F -0.4 °F 85% 30.34 in 10.0 mi WNW 15.0 mph - N/A   Clear
12:56 AM 3.2 °F -15.3 °F -0.4 °F 85% 30.34 in 10.0 mi WNW 15.0 mph - N/A   Clear
1:16 AM 3.2 °F -15.3 °F -0.4 °F 85% 30.34 in 10.0 mi WNW 15.0 mph - N/A   Clear
1:36 AM 3.2 °F -16.5 °F -0.4 °F 85% 30.34 in 10.0 mi WNW 17.3 mph 20.7 mph N/A   Mostly Cloudy
1:55 AM 3.2 °F -14.6 °F -4.0 °F 72% 30.34 in 10.0 mi NW 13.8 mph - N/A   Mostly Cloudy
2:16 AM 1.4 °F -15.3 °F -4.0 °F 78% 30.34 in 10.0 mi NW 11.5 mph - N/A   Scattered Clouds
2:36 AM 1.4 °F -15.3 °F -4.0 °F 78% 30.34 in 10.0 mi WNW 11.5 mph - N/A   Clear
2:56 AM -0.4 °F -17.6 °F -5.8 °F 78% 30.34 in 10.0 mi WNW 11.5 mph - N/A   Clear
3:16 AM -0.4 °F -18.4 °F -5.8 °F 78% 30.35 in 10.0 mi West 12.7 mph - N/A   Clear
3:36 AM -0.4 °F -18.4 °F -5.8 °F 78% 30.34 in 10.0 mi WNW 12.7 mph - N/A   Clear
3:56 AM -0.4 °F -17.6 °F -5.8 °F 78% 30.34 in 10.0 mi WNW 11.5 mph - N/A   Clear
4:16 AM -0.4 °F -16.7 °F -5.8 °F 78% 30.34 in 10.0 mi WNW 10.4 mph - N/A   Clear
4:36 AM -0.4 °F -17.6 °F -5.8 °F 78% 30.34 in 10.0 mi NW 11.5 mph - N/A   Clear
4:56 AM -0.4 °F -17.6 °F -5.8 °F 78% 30.33 in 10.0 mi WNW 11.5 mph - N/A   Clear
5:16 AM -0.4 °F -17.6 °F -5.8 °F 78% 30.34 in 10.0 mi WNW 11.5 mph - N/A   Clear
5:36 AM -4.0 °F -23.0 °F -7.6 °F 85% 30.33 in 10.0 mi WNW 12.7 mph - N/A   Clear
5:56 AM -2.2 °F -20.7 °F -5.8 °F 85% 30.33 in 10.0 mi WNW 12.7 mph - N/A   Clear
6:16 AM -4.0 °F -20.2 °F -9.4 °F 78% 30.33 in 10.0 mi West 9.2 mph - N/A   Clear
6:36 AM -5.8 °F -21.2 °F -9.4 °F 84% 30.32 in 10.0 mi WNW 8.1 mph - N/A   Clear
6:56 AM -5.8 °F -21.2 °F -11.2 °F 77% 30.32 in 10.0 mi West 8.1 mph - N/A   Clear
7:16 AM -4.0 °F -17.8 °F -9.4 °F 78% 30.32 in 10.0 mi WNW 6.9 mph - N/A   Clear
7:36 AM -5.8 °F -21.2 °F -11.2 °F 77% 30.33 in 10.0 mi West 8.1 mph - N/A   Clear
7:56 AM -5.8 °F -21.2 °F -11.2 °F 77% 30.33 in 10.0 mi West 8.1 mph - N/A   Clear
8:16 AM -5.8 °F -21.2 °F -9.4 °F 84% 30.33 in 10.0 mi WSW 8.1 mph - N/A   Clear
8:36 AM -4.0 °F -19.0 °F -9.4 °F 78% 30.33 in 10.0 mi WSW 8.1 mph - N/A   Clear
8:56 AM -0.4 °F -15.7 °F -7.6 °F 72% 30.33 in 10.0 mi WSW 9.2 mph - N/A   Clear
9:16 AM -0.4 °F -17.6 °F -7.6 °F 72% 30.33 in 10.0 mi West 11.5 mph - N/A   Clear
9:36 AM 1.4 °F -17.6 °F -5.8 °F 72% 30.34 in 10.0 mi West 15.0 mph - N/A   Clear
9:56 AM 1.4 °F -16.9 °F -5.8 °F 72% 30.35 in 10.0 mi West 13.8 mph - N/A   Clear
10:16 AM 1.4 °F -15.3 °F -5.8 °F 72% 30.34 in 10.0 mi West 11.5 mph - N/A   Clear
10:32 AM 3.2 °F -13.1 °F -4.0 °F 72% 30.34 in 10.0 mi West 11.5 mph - N/A   Clear
10:56 AM 3.2 °F -14.6 °F -5.8 °F 66% 30.34 in 10.0 mi WNW 13.8 mph - N/A   Clear
11:16 AM 5.0 °F -13.0 °F -5.8 °F 61% 30.34 in 10.0 mi West 15.0 mph - N/A   Clear
11:36 AM 5.0 °F -14.2 °F -5.8 °F 61% 30.34 in 10.0 mi West 17.3 mph 21.9 mph N/A   Clear
11:56 AM 6.8 °F -11.3 °F -4.0 °F 61% 30.32 in 10.0 mi West 16.1 mph - N/A   Clear
12:16 PM 6.8 °F -13.4 °F -4.0 °F 61% 30.32 in 10.0 mi West 20.7 mph - N/A   Clear
12:36 PM 6.8 °F -13.4 °F -4.0 °F 61% 30.31 in 7.0 mi West 20.7 mph - N/A   Clear
12:47 PM 6.8 °F -12.9 °F -4.0 °F 61% 30.30 in 7.0 mi WNW 19.6 mph - N/A   Clear
1:17 PM 8.6 °F -7.7 °F -2.2 °F 62% 30.29 in 10.0 mi West 13.8 mph - N/A   Clear
1:36 PM 8.6 °F -10.0 °F -4.0 °F 57% 30.29 in 10.0 mi West 18.4 mph 26.5 mph N/A   Clear
1:56 PM 8.6 °F -10.0 °F -0.4 °F 67% 30.28 in 10.0 mi WNW 18.4 mph - N/A   Clear
2:16 PM 10.4 °F -7.7 °F -0.4 °F 62% 30.28 in 10.0 mi WNW 18.4 mph - N/A   Clear
2:37 PM 10.4 °F -7.7 °F -0.4 °F 62% 30.27 in 10.0 mi WNW 18.4 mph - N/A   Clear
2:56 PM 8.6 °F -11.0 °F -0.4 °F 67% 30.27 in 4.0 mi WNW 20.7 mph 27.6 mph N/A   Haze
3:16 PM 8.6 °F -10.5 °F -0.4 °F 67% 30.27 in 4.0 mi WNW 19.6 mph - N/A   Haze
3:37 PM 8.6 °F -10.0 °F -0.4 °F 67% 30.28 in 1.5 mi WNW 18.4 mph 28.8 mph N/A   Haze
3:57 PM 6.8 °F -14.3 °F -0.4 °F 72% 30.28 in 1.2 mi WNW 23.0 mph 29.9 mph N/A   Haze
4:16 PM 5.0 °F -16.2 °F -2.2 °F 72% 30.28 in 2.0 mi WNW 21.9 mph 28.8 mph N/A   Haze
4:36 PM 5.0 °F -13.6 °F -4.0 °F 66% 30.28 in 7.0 mi WNW 16.1 mph 19.6 mph N/A   Clear
4:57 PM 3.2 °F -16.5 °F -4.0 °F 72% 30.28 in 7.0 mi WNW 17.3 mph 24.2 mph N/A   Clear
5:16 PM 3.2 °F -17.1 °F -4.0 °F 72% 30.29 in 7.0 mi WNW 18.4 mph - N/A   Clear
5:37 PM 3.2 °F -17.6 °F -5.8 °F 66% 30.30 in 10.0 mi WNW 19.6 mph - N/A   Clear
5:56 PM 1.4 °F -19.4 °F -5.8 °F 72% 30.31 in 10.0 mi WNW 18.4 mph - N/A   Clear
6:16 PM 1.4 °F -16.9 °F -5.8 °F 72% 30.32 in 10.0 mi WNW 13.8 mph - N/A   Clear
6:36 PM 1.4 °F -18.8 °F -5.8 °F 72% 30.32 in 10.0 mi WNW 17.3 mph - N/A   Clear
6:57 PM -0.4 °F -21.2 °F -7.6 °F 72% 30.33 in 10.0 mi WNW 17.3 mph - N/A   Clear
7:16 PM -0.4 °F -22.3 °F -7.6 °F 72% 30.34 in 10.0 mi WNW 19.6 mph 24.2 mph N/A   Clear
7:36 PM -0.4 °F -23.3 °F -7.6 °F 72% 30.33 in 10.0 mi WNW 21.9 mph 26.5 mph N/A   Clear
7:57 PM -0.4 °F -22.3 °F -7.6 °F 72% 30.34 in 10.0 mi WNW 19.6 mph 26.5 mph N/A   Clear
8:17 PM -0.4 °F -21.7 °F -7.6 °F 72% 30.35 in 10.0 mi WNW 18.4 mph - N/A   Clear
8:36 PM -0.4 °F -22.3 °F -7.6 °F 72% 30.35 in 10.0 mi WNW 19.6 mph 23.0 mph N/A   Clear
8:56 PM -0.4 °F -21.7 °F -7.6 °F 72% 30.36 in 10.0 mi WNW 18.4 mph - N/A   Clear
9:17 PM -0.4 °F -20.5 °F -7.6 °F 72% 30.36 in 10.0 mi WNW 16.1 mph 23.0 mph N/A   Clear
9:36 PM -0.4 °F -21.7 °F -7.6 °F 72% 30.37 in 10.0 mi WNW 18.4 mph 24.2 mph N/A   Clear
9:56 PM -4.0 °F -25.8 °F -9.4 °F 78% 30.36 in 10.0 mi WNW 17.3 mph - N/A   Clear
10:16 PM -4.0 °F -25.8 °F -11.2 °F 71% 30.36 in 10.0 mi WNW 17.3 mph - N/A   Clear
10:36 PM -4.0 °F -25.2 °F -11.2 °F 71% 30.37 in 10.0 mi WNW 16.1 mph - N/A   Clear
10:56 PM -4.0 °F -25.2 °F -11.2 °F 71% 30.37 in 10.0 mi WNW 16.1 mph - N/A   Clear
11:16 PM -4.0 °F -25.2 °F -9.4 °F 78% 30.36 in 10.0 mi WNW 16.1 mph - N/A   Clear
11:36 PM -4.0 °F -24.5 °F -11.2 °F 71% 30.36 in 10.0 mi WNW 15.0 mph - N/A   Clear
11:56 PM -5.8 °F -26.8 °F -13.0 °F 71% 30.36 in 10.0 mi WNW 15.0 mph - N/A   Clear